Regional Weather Roundup
Issued by NWS Cleveland, OH

Home | Current Version | Previous Version | Text Only | Print | Product List | Glossary Off
Versions: 1 2 3 4 5 6 7 8 9 10 11 12 13 14 15 16 17 18 19 20 21 22 23 24 25 26 27 28 29 30 31 32 33 34 35 36 37 38 39 40 41 42 43 44 45 46 47 48 49 50

000
ASUS41 KCLE 311400
RWRCLE
OHIO REGIONAL WEATHER ROUNDUP
NATIONAL WEATHER SERVICE WILMINGTON, OH
900 AM EST SAT JAN 31 2015

NOTE: "FAIR" INDICATES FEW OR NO CLOUDS BELOW 12,000 FEET WITH NO
SIGNIFICANT WEATHER AND/OR OBSTRUCTIONS TO VISIBILITY.

OHZ001>008-015>018-024>027-034-035-043-044-311500-
   NORTHWEST OHIO

CITY           SKY/WX    TMP DP  RH WIND       PRES   REMARKS
DEFIANCE       SUNNY     20  15  81 S6        30.32S WCI  12
FINDLAY        PTSUNNY   19  13  77 S10       30.32R WCI   7
TOLEDO EXPRESS MOSUNNY   18  13  80 SW6       30.31S WCI  10
TOLEDO EXEC    PTSUNNY   20  14  77 SW9       30.32S WCI   9
LIMA           MOSUNNY   20  13  74 S8        30.32S WCI  10
$$

OHZ009>014-019>023-028>033-038-089-311500-
   NORTHEAST OHIO

CITY           SKY/WX    TMP DP  RH WIND       PRES   REMARKS
CLE-HOPKINS    CLOUDY    14   7  73 SW8       30.36S WCI   3
CLE-LAKEFRONT  PTSUNNY   14   7  73 S7        30.34S WCI   4
CUY CO. ARPT   PTSUNNY   18  10  73 SW8       30.32F WCI   7
LORAIN-ELYRIA  MOSUNNY   11   6  81 S6        30.33F WCI   1
ASHTABULA      CLOUDY     9   4  80 S6        30.32F WCI  -1
AKRON-CANTON   PTSUNNY   10   5  80 SW8       30.32S WCI  -2
WOOSTER        NOT AVBL
MANSFIELD      PTSUNNY   15  10  80 SW10      30.30S WCI   2
YOUNGSTOWN     PTSUNNY    9   5  84 S8        30.30F WCI  -3
$$

OHZ042-051>053-060>062-070>072-077>081-311500-
  SOUTHWEST OHIO

CITY           SKY/WX    TMP DP  RH WIND       PRES   REMARKS
CINC-COVINGTON MOSUNNY   22  15  75 S7        30.37S WCI  13
CINC-LUNKEN    SUNNY     18  17  96 CALM      30.42S
HAMILTON       SUNNY     21  18  88 CALM      30.40S
DAYTON         NOT AVBL
WRIGHT-PAT AFB SUNNY     19  14  82 VRB3      30.36F
DAYTON GENERAL MOSUNNY   20  15  81 S8        30.35S WCI  10
WILMINGTON     SUNNY     21  14  74 S9        30.35S WCI  11
$$

OHZ036-037-039>041-045>050-054>059-063>069-073>076-082>088-311500-
  CENTRAL AND SOUTHEAST OHIO

CITY           SKY/WX    TMP DP  RH WIND       PRES   REMARKS
COLUMBUS       MOSUNNY   15  10  80 S6        30.38S WCI   6
OSU AIRPORT    MOSUNNY   16  11  80 S7        30.36S WCI   6
BOLTON FIELD   SUNNY     16  12  86 S3        30.37S
RICKENBACK AFB NOT AVBL
NEWARK         MOSUNNY    9   6  88 CALM      30.36F
MARION         CLOUDY    13   9  84 S7        30.34F WCI   3
LANCASTER      SUNNY     14  12  92 CALM      30.38S
ZANESVILLE     MOSUNNY    5   3  91 S3        30.37S
NEW PHILLY     MOSUNNY    5   1  83 SE5       30.38R WCI  -4
$$



USA.gov is the U.S. government's official web portal to all federal, state and local government web resources and services.